Location: Praha
(50.0755°N, 14.4378°E)
Time: 17:09:40
(UTC+01:00)

ISS - Pass Details

Date: 24 January 2020
Orbit: 415 x 422 km, 51.6° (Epoch: 26 February)

Event Time Altitude Azimuth Distance (km) Brightness Sun altitude
Rises 19:56:55 0° 265° (W) 2,376 1.2 -31.0°
Reaches altitude 10° 19:59:01 10° 268° (W) 1,511 -0.1 -31.3°
Enters shadow 19:59:23 12° 268° (W) 1,368 -0.4 -31.4°
